Regional Weather Roundup
Issued by NWS

Home | Current Version | Previous Version | Text Only | Print | Product List | Glossary On
Versions: 1 2 3 4 5 6 7 8 9 10 11 12 13 14 15 16 17 18 19 20 21 22 23 24 25 26 27 28 29 30 31 32 33 34 35 36 37 38 39 40 41 42 43 44 45 46 47 48 49 50
000
ASCA44 KEWX 261020
RWRMX

LATIN AMERICA AND CARIBBEAN REGIONAL WEATHER ROUNDUP
NATIONAL WEATHER SERVICE AUSTIN/SAN ANTONIO TX
500 AM CDT THU APR 26 2018

NOTE: "FAIR" INDICATED FEW OR NO CLOUDS BELOW 12,000 FEET WITH NO
SIGNIFICANT WEATHER AND/OR OBSTRUCTIONS TO VISIBILITY.

BAJA CALIFORNIA

CITY           SKY/WX    TMP DP  RH WIND       PRES   REMARKS
S.J. DEL CABO    N/A    N/A N/A N/A MISG        N/A
TIJUANA        CLOUDY    57  54  88 CALM      30.03

NORTHWESTERN MEXICO

CITY           SKY/WX    TMP DP  RH WIND       PRES   REMARKS
DURANGO        PTCLDY    54  36  50 W8        30.18
HERMOSILLO     CLEAR     75  36  23 CALM      29.87

NORTHEASTERN MEXICO

CITY           SKY/WX    TMP DP  RH WIND       PRES   REMARKS
MONCLOVA         N/A    N/A N/A N/A MISG        N/A
MONTERREY      CLOUDY    63  55  77 NW12      30.10R
REYNOSA        MOCLDY    66  63  88 NW2       29.99  FOG
TORREON        PTCLDY    72  59  64 N5        30.05
CD. VICTORIA     N/A    N/A N/A N/A MISG        N/A

WESTERN MEXICO

CITY           SKY/WX    TMP DP  RH WIND       PRES   REMARKS
AGUASCALIENTES CLEAR     61  48  63 N9        30.19
COLIMA           N/A    N/A N/A N/A MISG        N/A
DEL BAJIO      CLEAR     61  50  67 CALM      30.22
GUADALAJARA    CLEAR     61  23  23 SW3       30.13
MAZATLAN       CLEAR     61  50  67 CALM      29.86S
P. VALLARTA    CLEAR     63  50  63 NE6       29.87F
URUAPAN          N/A    N/A N/A N/A MISG        N/A
ZACATECAS      PTCLDY    52  37  58 CALM      30.23

CENTRAL MEXICO

CITY           SKY/WX    TMP DP  RH WIND       PRES   REMARKS
CUERNAVACA       N/A    N/A N/A N/A MISG        N/A
MEXICO CITY    CLEAR     61  50  67 N7        30.28S
MORELIA          N/A    N/A N/A N/A MISG        N/A
POZA RICA        N/A    N/A N/A N/A MISG        N/A
PUEBLA         CLEAR     54  52  94 NW2       30.28
S. LUIS POTOSI   N/A    N/A N/A N/A MISG        N/A
TAMPICO        CLOUDY    70  70 100 MISG      29.96
TOLUCA         CLEAR     46  43  87 CALM      30.34

SOUTHERN MEXICO

CITY           SKY/WX    TMP DP  RH WIND       PRES   REMARKS
ACAPULCO       CLEAR     77  66  69 NW3       29.84F
B. DE HUATULCO   N/A    N/A N/A N/A MISG        N/A
P. ESCONDIDO     N/A    N/A N/A N/A MISG        N/A
VERACRUZ         N/A    N/A N/A N/A MISG        N/A

YUCATAN PENINSULA

CITY           SKY/WX    TMP DP  RH WIND       PRES   REMARKS
CAMPECHE       PTCLDY    75  72  88 CALM      29.83S
CANCUN         MOCLDY    72  72 100 CALM      29.89S
CHETUMAL       PTCLDY    77  73  88 CALM      29.88
CD. DEL CARMEN   N/A    N/A N/A N/A MISG        N/A
COZUMEL        PTCLDY    75  73  94 CALM      29.88S
MERIDA         CLEAR     75  72  88 CALM      29.90R
MINATITLAN     PTCLDY    81  77  89 N12       29.85
TAPACHULA      MOCLDY    73  73 100 CALM      29.85S
VILLAHERMOSA   CLEAR     75  75 100 CALM      29.88

CENTRAL AMERICA

CITY           SKY/WX    TMP DP  RH WIND       PRES   REMARKS
MANAGUA        MOSUNNY   77  70  78 E5        29.83S

CARIBBEAN

CITY           SKY/WX    TMP DP  RH WIND       PRES   REMARKS
CURACAO          N/A     79  72  78 SE12      29.92R
KINGSTON       PTCLDY    79  73  83 N5        29.89
NASSAU         PTCLDY    75  68  78 CALM      29.92S
SAN JUAN       PTCLDY    77  73  88 CALM      29.97R
SANTO DOMINGO  PTCLDY    70  68  94 NE5       29.94R
ST. CROIX      CLOUDY    79  75  89 E13       29.99
ST. MAARTEN    MOCLDY    79  72  78 E14       30.00R
ST. THOMAS     CLOUDY    75  75 100 SE17      29.99  FOG

$$





USA.gov is the U.S. government's official web portal to all federal, state and local government web resources and services.